CAPE
484 646 58 77 783 904 459 529 1336 1035 1987 1940 1737 2013 2039 1888 1852 1900 1301 1685 1417 1326 1537 1871 1818 1517 1424 1642 2093 1710 1338 843 737 416 823 1060 1867 1933 1682 996 626 988 959
553 709 630 30 333 707 670 218 664 1126 1237 1963 1985 1929 1821 1796 2026 1906 1886 1863 1718 1683 1799 1701 1914 1946 1919 1780 1738 1474 1687 1873 1327 1301 1557 1385 1327 1398 1403 1431 1655 2008 1558
892 556 877 681 43 489 408 421 74 1319 1036 1810 1926 1859 1811 1800 1722 1940 1913 1777 1722 1889 1947 2308 2100 2168 2121 2025 1736 1522 1468 1547 1645 1720 1701 1589 2007 2099 2166 1583 2198 2654 2312
1081 956 812 827 799 106 143 43 571 1173 1903 1589 2267 1625 2132 1636 1626 1792 1904 1988 1803 1774 2128 2103 2336 2261 2193 2144 2428 2583 2645 2506 2227 2207 2262 2046 1708 1954 1773 2123 1895 1798 2074
1349 1377 1193 991 852 1073 560 338 26 972 1340 1881 1707 2274 1804 2142 1910 1539 1899 1988 1970 1962 1882 2029 1789 1759 2209 2210 2484 2590 2733 2615 2648 2631 2472 2119 1879 1419 1937 2029 2333 2166 1798
1726 1731 1639 1518 1194 1076 1188 1097 189 467 1124 1082 1698 1888 2120 2207 2190 1836 1413 1704 1979 1917 2023 2012 2187 1943 1901 2014 1858 2182 2749 2699 2697 2790 2426 2239 1692 1734 2005 2238 2036 1869 2627
1257 1834 1812 1711 1719 1455 1314 1227 1150 308 789 1685 1558 1942 2003 2062 2165 1411 1199 1370 1400 1931 1864 1883 1855 1967 1916 1872 1672 1012 685 774 1245 1744 1694 1619 1658 1586 1774 1982 2186 2509 2557
1170 1476 1774 1815 1778 1760 1629 1459 1365 1050 432 606 1779 1985 2076 2176 2327 1203 265 936 1090 1071 1840 1948 1886 1840 1805 1611 1620 1847 1678 1200 993 617 634 1368 1564 1783 1992 2214 2338 2493 2716
1390 1322 1806 1908 1893 1895 1746 1655 1494 1513 1472 1010 1281 1913 2106 2176 2154 1729 19 2 703 956 1092 1198 1603 1891 1952 2068 1624 1776 1771 2201 2613 2023 1655 1387 1267 1265 1547 2349 2665 2703 2588
1528 1747 1707 1727 1883 2012 1836 1802 1663 1544 1676 1789 1628 1835 2102 2211 2216 1161 66 1058 350 474 805 1016 1370 1621 1831 1936 1193 1348 1290 1402 1347 1838 1701 769 155 433 588 564 1810 2170 1884
1693 1900 2019 1794 1825 1917 2075 1838 1903 1852 1742 1764 1885 1888 2019 2183 2381 1480 11 1674 1651 1117 890 822 1033 1092 557 397 226 810 1026 1126 1217 1562 1927 2404 2570 2614 2629 845 367 1166 1560
2378 2045 2110 2062 1904 2083 2182 2188 2049 2077 1952 1879 1948 1989 2073 2256 2141 1700 82 126 1850 1712 1389 1288 1112 1164 1215 748 0 7 413 344 1113 1836 2007 2029 1976 2063 2200 2630 2722 1883 2309
28 2224 2467 2511 2184 2295 2406 2440 2326 2261 2157 2091 2051 2105 2116 2263 2664 1684 509 0 22 1482 1783 1520 1204 901 158 0 0 0 0 0 363 959 1309 1525 1870 2286 2568 2879 3166 3404 3301
61 2527 2051 2364 2885 2400 2714 2617 2614 2606 2481 2372 2379 2275 2300 2290 2501 2859 571 0 0 0 1130 1013 201 254 320 940 743 10 0 0 232 664 1110 1653 2341 2821 3103 3072 3167 3268 3075
0 2771 2595 2794 2472 2810 2841 2767 2896 2779 2795 2743 2600 2472 2388 2447 2265 2747 2748 1628 1029 402 737 1096 1180 1090 1474 1420 1020 1389 317 136 960 1584 2277 2685 2808 2924 3111 3237 3253 2426 2798
0 1286 2570 3069 2644 2797 2667 1804 73 1964 2715 2617 2638 2570 2352 1086 2201 2263 1827 1671 1260 540 131 1405 1363 1506 1543 1511 1396 1085 1963 1473 1582 2036 2554 2784 2887 2939 3138 2949 2730 2637 2561
0 0 80 444 2938 2834 2748 2503 2144 403 0 10 325 2257 896 1335 370 276 106 2 9 0 1180 1210 1631 1659 1754 1837 1888 1768 1710 2452 2865 2793 2957 3012 3145 3142 2651 2562 2325 2161 1998
1 0 0 13 259 956 2718 2714 2394 2023 1843 951 2 0 0 208 0 3 0 0 0 92 1289 1437 1668 1978 2225 2476 2571 2796 2683 2648 2515 2454 2613 2857 2979 2870 2542 2354 2057 1954 1806
1 1 0 0 0 6 556 2513 2380 2045 1762 1511 0 1 1 2 1 1 1 1727 1103 1059 1784 2179 2277 2533 2786 3042 3052 2753 2635 2595 2788 3173 3242 3131 2952 2623 2460 2179 1881 1851 1809
0 0 0 0 0 0 82 1249 1833 1491 1135 957 597 158 0 1 15 63 66 376 816 1112 1469 1678 1320 1044 1071 1663 2502 3046 2929 2818 2832 2932 2923 2736 2610 2614 2482 2291 2062 1609 1294
0 1 1 2 11 1 1 94 518 382 121 95 2 1 5 381 18 2 1 2 2 1 0 1 2 0 5 1 0 3 1114 2129 2600 3021 2714 2064 1916 1929 1930 1946 1908 1737 1622
1 4 1 3 3 5 2 3 3 5 1 3 8 2 0 3 3 5 4 1 2 5 2 8 8 1 0 0 0 1 1 1 0 0 0 178 1676 1964 1692 1583 1507 1288 1383
1 3 5 4 4 6 4 8 8 11 11 11 8 2 1 2 3 5 12 13 4 2 2 2 3 3 1 0 0 2 5 5 2 0 0 0 0 53 455 716 736 437 230
0 3 10 15 14 4 13 8 10 17 22 8 4 3 2 2 3 3 4 16 5 2 3 6 1 0 1 1 2 1 1 3 1 0 0 0 0 0 0 0 13 44 58
2 2 4 11 5 4 7 15 15 14 15 3 10 5 3 3 3 3 3 1 2 2 1 1 0 0 0 0 0 0 0 0 0 0 0 0 0 0 0 0 0 0 0
1 2 2 1 2 4 2 6 8 3 3 2 2 2 2 3 2 3 3 2 1 3 0 0 0 0 0 0 0 0 0 0 0 0 0 0 0 0 0 0 0 0 0
CIN
-215 -170 -379 -379 -131 -119 -155 -132 -71 -70 -76 -76 -102 -69 -58 -52 -48 -60 -70 -46 -64 -70 -64 -53 -54 -83 -92 -80 -67 -77 -103 -175 -151 -251 -244 -232 -134 -108 -142 -313 -405 -340 -367
-233 -164 -162 -403 -222 -127 -159 -257 -141 -91 -108 -74 -69 -58 -56 -48 -36 -45 -45 -27 -35 -48 -50 -52 -45 -56 -59 -85 -85 -91 -89 -90 -146 -135 -166 -165 -180 -194 -229 -232 -212 -194 -296
-220 -211 -131 -158 -450 -236 -222 -238 -333 -96 -111 -58 -42 -45 -63 -64 -62 -52 -48 -45 -39 -50 -44 -36 -42 -38 -44 -61 -85 -121 -145 -138 -160 -169 -167 -196 -142 -166 -175 -299 -256 -200 -252
-233 -209 -185 -168 -170 -383 -316 -382 -182 -99 -67 -84 -48 -70 -60 -89 -83 -67 -56 -49 -58 -50 -39 -37 -36 -37 -32 -42 -39 -45 -46 -48 -76 -87 -114 -156 -209 -171 -254 -216 -253 -309 -255
-197 -178 -188 -176 -147 -108 -190 -270 -159 -115 -77 -79 -85 -61 -84 -58 -65 -107 -69 -63 -58 -51 -57 -48 -63 -62 -32 -36 -28 -33 -34 -39 -44 -56 -76 -138 -201 -281 -204 -230 -220 -282 -321
-154 -151 -135 -135 -147 -135 -106 -100 -330 -236 -92 -94 -49 -61 -62 -47 -41 -83 -117 -97 -66 -63 -57 -74 -44 -39 -55 -46 -78 -52 -26 -32 -39 -47 -101 -145 -265 -279 -246 -224 -260 -298 -205
-149 -111 -121 -135 -125 -126 -107 -87 -117 -308 -171 -63 -72 -50 -62 -61 -54 -137 -169 -115 -120 -80 -76 -77 -84 -46 -60 -82 -103 -216 -321 -338 -272 -152 -214 -275 -296 -328 -306 -283 -262 -226 -220
-153 -124 -115 -133 -139 -114 -93 -95 -87 -129 -264 -200 -55 -49 -51 -58 -58 -173 -369 -185 -157 -168 -108 -103 -94 -89 -103 -115 -114 -104 -161 -268 -364 -519 -561 -360 -355 -333 -304 -246 -239 -232 -221
-156 -145 -146 -135 -128 -122 -106 -102 -86 -59 -66 -140 -101 -47 -47 -48 -71 -123 -64 -11 -232 -218 -197 -163 -129 -119 -131 -89 -133 -134 -170 -164 -133 -225 -330 -408 -437 -457 -408 -269 -195 -156 -202
-49 -137 -155 -154 -141 -145 -159 -121 -100 -73 -62 -45 -62 -56 -53 -52 -63 -215 -608 -155 -362 -312 -258 -244 -181 -173 -166 -134 -200 -168 -231 -274 -305 -261 -332 -611 -904 -769 -715 -749 -358 -245 -276
-45 -109 -134 -141 -156 -162 -126 -121 -95 -73 -51 -32 -35 -41 -40 -56 -60 -179 -84 -105 -105 -187 -208 -248 -252 -252 -368 -428 -560 -308 -316 -285 -332 -344 -311 -254 -240 -228 -226 -683 -809 -484 -369
-62 -81 -96 -122 -119 -135 -115 -101 -83 -62 -50 -46 -29 -26 -23 -28 -73 -157 -436 -267 -135 -116 -170 -207 -229 -239 -248 -348 0 -259 -579 -660 -451 -308 -293 -309 -324 -307 -272 -212 -225 -384 -255
-871 -77 -98 -89 -91 -81 -97 -88 -63 -39 -33 -30 -25 -26 -28 -30 -28 -174 -486 0 -19 -187 -146 -187 -230 -312 -603 0 0 0 0 0 -697 -518 -441 -400 -336 -249 -192 -139 -85 -69 -79
-724 -94 -69 -84 -72 -56 -66 -64 -52 -33 -28 -18 -11 -22 -28 -29 -28 -33 -490 0 0 0 -282 -321 -669 -610 -582 -388 -538 -149 0 0 -815 -623 -508 -383 -247 -157 -101 -96 -69 -59 -61
0 -87 -51 -50 -87 -40 -46 -62 -46 -42 -28 -20 -10 -12 -27 -51 -89 -52 -95 -264 -381 -611 -439 -301 -268 -314 -247 -295 -435 -379 -730 -899 -559 -409 -259 -183 -150 -123 -93 -68 -54 -143 -54
0 -275 -67 -50 -84 -37 -33 -184 -231 -186 -43 -43 -23 -14 -44 -308 -92 -79 -136 -254 -348 -539 -625 -228 -265 -241 -260 -309 -359 -434 -289 -429 -419 -308 -207 -167 -149 -130 -90 -91 -88 -56 -49
0 0 -718 -507 -35 -44 -40 -48 -106 -579 0 -20 -572 -34 -274 -166 -383 -459 -589 -26 -23 0 -264 -283 -220 -240 -252 -252 -265 -293 -325 -230 -169 -182 -154 -129 -96 -79 -124 -90 -86 -88 -92
0 0 0 -588 -572 -316 -38 -38 -48 -110 -122 -316 0 0 0 -396 0 0 0 0 0 -458 -244 -254 -238 -202 -173 -152 -142 -136 -170 -181 -206 -205 -179 -129 -82 -68 -83 -84 -93 -101 -111
0 0 0 0 0 -569 -411 -32 -44 -79 -114 -130 0 0 0 0 0 0 0 -181 -277 -287 -172 -132 -143 -110 -98 -84 -80 -109 -129 -143 -111 -65 -55 -70 -70 -71 -55 -61 -102 -107 -103
0 0 0 0 0 0 -586 -156 -77 -138 -191 -198 -298 -457 0 0 -130 -499 -504 -338 -244 -191 -128 -114 -167 -216 -205 -136 -97 -65 -77 -90 -77 -51 -40 -44 -51 -56 -36 -41 -48 -94 -152
0 0 0 0 -418 0 0 -533 -267 -324 -503 -513 0 0 -539 -183 -247 0 0 0 0 0 0 0 0 0 0 0 0 0 -158 -63 -47 -25 -33 -61 -78 -83 -71 -54 -48 -45 -57
-1 0 0 0 0 0 0 0 0 0 0 0 0 0 0 0 0 0 0 0 0 0 0 0 0 0 0 0 0 0 0 0 0 0 0 -278 -52 -30 -44 -44 -64 -64 -52
0 0 0 0 0 0 0 0 0 0 0 0 0 0 0 0 0 0 0 0 0 0 0 0 0 0 0 0 0 0 0 0 0 0 0 0 0 -163 -207 -134 -133 -182 -255
0 0 0 0 0 0 0 0 0 0 0 0 0 0 0 0 0 0 0 0 0 0 0 0 0 0 0 0 0 0 0 0 0 0 0 0 0 0 0 0 -337 -375 -354
0 0 0 0 0 0 0 0 0 0 0 0 0 0 0 0 0 0 0 0 0 0 0 0 0 0 0 0 0 0 0 0 0 0 0 0 0 0 0 0 0 0 0
0 0 0 0 0 0 0 0 0 0 0 0 0 0 0 0 0 0 0 0 0 0 0 0 0 0 0 0 0 0 0 0 0 0 0 0 0 0 0 0 0 0 0
Wind_Speed
19 17 17 14 8 6 8 8 7 5 7 9 10 8 8 8 7 7 7 6 6 5 5 4 6 5 3 2 1 2 2 2 3 4 3 3 2 3 5 6 6 6 6
20 18 18 16 13 12 8 8 7 8 6 8 10 11 9 8 7 8 8 6 7 7 7 6 6 4 6 4 2 4 3 2 4 4 2 3 3 6 6 6 9 7 7
21 20 18 17 18 16 16 7 9 7 7 7 7 11 11 9 8 7 7 7 7 7 8 7 7 6 6 4 4 4 3 3 3 3 4 2 4 4 5 4 5 6 6
22 21 20 20 18 18 16 15 8 10 8 9 8 9 8 9 8 8 8 7 7 7 7 7 7 7 7 7 5 6 4 4 3 3 3 4 4 5 2 3 4 2 3
21 21 21 19 18 16 17 15 16 11 13 8 9 8 9 8 8 9 9 10 9 7 7 7 8 9 11 9 5 6 6 5 4 4 4 2 3 3 3 3 3 3 5
21 21 19 19 19 18 16 15 15 13 14 14 12 11 10 10 13 15 12 8 11 10 10 8 7 10 12 14 14 12 8 6 6 4 3 4 6 4 3 3 4 3 5
20 20 20 20 19 19 17 16 15 17 12 14 16 14 14 13 14 16 17 11 10 11 12 10 8 9 9 7 11 15 15 15 14 10 9 8 8 6 4 5 6 6 5
18 19 19 19 20 18 18 18 16 15 17 15 13 14 14 12 15 16 16 12 11 12 11 12 12 12 8 8 8 9 10 10 10 8 10 12 9 8 8 11 10 6 5
15 19 19 19 19 18 19 18 16 15 15 16 14 14 15 14 16 17 11 8 11 11 11 12 11 11 12 13 7 8 7 8 8 13 12 13 16 16 11 3 7 4 7
15 16 17 19 19 20 20 19 17 15 15 12 15 15 15 16 15 18 15 10 9 8 8 9 14 12 12 14 12 13 12 14 7 7 5 6 11 11 17 11 9 8 6
11 13 15 18 19 19 17 16 16 15 14 14 15 14 15 15 16 18 19 13 11 10 10 9 10 16 17 15 17 14 15 13 9 6 6 5 5 5 5 6 8 7 4
10 10 14 16 15 14 18 16 16 15 15 15 14 13 11 14 15 16 19 21 16 12 12 11 11 15 19 21 15 18 17 8 4 4 4 5 5 5 7 6 8 8 7
13 12 11 14 16 16 17 16 13 14 13 13 12 12 12 11 12 18 20 21 19 13 12 12 11 12 11 9 15 17 9 7 9 8 9 8 6 6 7 5 4 5 4
15 11 13 13 13 14 13 13 13 13 13 13 13 12 11 11 11 11 10 10 17 12 11 9 7 8 9 6 3 4 5 6 8 8 8 7 4 4 4 4 3 3 2
15 10 13 11 12 12 12 13 13 14 14 13 12 12 12 12 13 13 13 11 12 14 13 9 7 6 8 8 5 5 5 6 7 7 5 5 4 4 4 3 2 3 3
13 7 5 7 8 10 10 5 7 8 15 16 15 13 10 8 12 17 16 19 21 14 6 9 9 9 10 9 9 9 9 10 8 7 7 7 7 6 5 3 3 4 4
10 11 6 5 2 8 8 10 8 3 5 2 12 17 13 12 10 12 15 17 12 15 7 9 9 9 9 9 9 8 8 8 9 7 5 6 5 4 4 3 3 3 4
12 10 7 5 4 4 6 8 8 8 10 4 1 2 6 12 6 6 10 12 4 5 7 8 9 8 8 9 8 6 7 6 7 6 6 6 5 4 3 3 4 5 5
9 7 7 5 4 3 3 6 8 8 9 7 4 4 6 9 6 3 4 2 4 6 5 6 6 6 6 5 6 5 6 6 5 4 5 6 6 5 4 5 6 9 6
9 15 7 6 5 6 4 2 4 3 4 2 5 4 4 3 1 2 3 3 3 2 2 3 4 6 8 7 5 5 5 5 5 5 4 4 4 4 4 5 5 5 5
6 9 12 7 5 8 6 8 6 7 9 7 7 5 11 7 8 7 7 8 7 7 7 7 6 8 9 9 11 13 9 3 2 3 4 4 4 4 4 4 4 5 5
7 9 9 7 8 9 10 10 9 7 10 10 8 13 18 14 9 9 8 7 7 7 8 6 7 10 6 10 10 10 10 12 10 8 7 7 3 3 4 4 4 4 4
9 9 9 10 8 11 11 10 9 9 7 9 10 9 12 12 14 10 8 9 8 9 9 9 8 5 6 11 12 12 6 7 8 8 7 7 6 6 4 4 4 4 4
9 11 9 9 10 9 8 9 12 13 10 10 12 11 9 13 15 10 11 7 6 9 10 9 10 13 9 11 9 7 4 6 6 7 8 5 5 6 5 5 5 4 2
10 10 10 9 9 9 9 11 9 9 8 7 16 8 11 11 9 8 7 7 10 10 11 10 9 14 16 17 13 11 9 14 8 10 5 6 8 10 7 5 7 7 5
12 12 10 10 10 9 9 9 9 10 9 9 9 10 8 10 10 10 9 8 9 8 10 9 10 13 13 11 12 12 8 10 12 13 9 8 8 8 7 8 11 7 8
Wind_Direction
189 187 194 196 196 185 190 196 194 198 148 163 171 165 176 182 184 177 195 210 206 210 230 219 246 246 264 292 16 15 295 173 205 294 249 235 273 248 273 244 253 254 248
187 188 192 194 193 201 201 197 191 197 168 169 177 181 187 186 184 185 196 197 198 212 223 223 242 235 258 248 226 240 242 228 176 249 278 301 298 291 270 282 277 263 246
183 190 189 192 197 200 204 197 199 191 192 177 176 178 180 184 187 191 196 206 207 211 205 209 221 216 233 242 239 240 233 250 213 197 266 255 269 274 290 279 258 259 258
185 186 193 195 194 201 203 204 197 192 187 186 182 191 181 184 186 188 193 205 213 215 220 217 215 209 217 231 237 238 249 268 271 264 268 264 238 283 250 266 300 312 293
187 189 193 193 196 193 200 199 205 200 202 186 187 185 191 188 195 191 190 201 209 221 228 222 227 220 212 213 218 230 222 234 242 249 270 292 281 295 274 285 292 290 295
187 193 192 189 194 198 194 195 198 204 205 205 206 202 201 207 203 194 194 193 205 212 228 235 228 224 230 229 231 225 204 213 224 207 227 239 261 257 261 263 280 297 309
193 192 192 192 192 196 194 196 193 202 203 201 205 205 211 213 206 201 200 207 205 211 217 226 234 239 223 226 236 238 241 235 230 239 245 246 261 250 258 270 267 259 252
190 192 193 193 194 191 192 196 199 195 206 213 206 207 212 214 204 206 204 213 212 212 206 212 219 229 225 216 232 243 243 244 238 229 231 250 250 251 232 255 260 257 273
185 191 190 191 191 189 195 196 197 198 201 209 213 210 212 219 204 206 184 202 219 220 218 218 216 222 220 213 212 236 251 255 253 242 234 227 234 241 245 260 260 260 279
225 188 187 187 189 191 193 194 196 202 204 202 212 214 212 217 205 203 191 210 216 224 223 224 216 216 206 217 229 242 252 253 241 253 256 254 245 250 248 231 248 251 260
206 191 184 185 190 190 189 193 194 199 203 209 213 217 218 213 216 201 196 210 217 217 226 226 228 220 227 225 217 233 237 250 245 234 249 250 252 251 253 208 214 212 211
264 190 190 187 190 185 186 188 195 195 201 207 212 218 221 222 215 207 202 205 211 214 223 226 227 207 218 228 227 233 240 229 223 228 231 243 250 256 261 243 225 212 214
323 225 187 187 191 187 186 185 190 195 201 207 211 214 219 218 219 211 203 207 218 212 226 226 213 202 206 223 234 237 223 213 228 233 241 245 231 237 245 254 264 236 228
312 253 199 190 184 189 185 187 188 196 202 206 210 215 216 220 218 212 209 210 226 222 237 227 188 183 203 202 204 201 203 205 203 216 223 229 225 226 230 225 228 205 189
315 234 198 193 188 190 185 187 195 205 201 203 209 213 214 218 220 207 196 200 209 213 213 225 219 217 236 237 231 213 196 202 208 213 203 213 228 231 236 223 178 144 193
329 332 209 182 181 190 193 170 34 225 197 199 201 208 219 245 219 210 210 200 203 183 189 207 216 222 228 230 229 228 212 204 206 206 210 215 220 217 212 188 159 194 232
339 332 319 14 206 190 194 205 203 46 65 86 224 212 212 206 205 215 222 213 191 146 200 210 212 211 222 224 222 217 216 206 195 196 200 213 209 196 178 185 201 201 240
338 329 340 3 356 346 212 201 203 193 200 182 92 339 170 141 155 158 146 116 114 241 200 195 206 208 213 217 220 202 193 191 198 206 203 201 195 191 169 190 203 211 221
335 332 342 329 333 10 307 225 202 182 191 170 106 66 74 98 111 119 356 72 151 192 209 218 207 218 230 217 203 195 185 199 197 191 217 195 183 172 196 201 206 217 213
327 318 305 329 320 32 355 42 216 139 108 75 136 171 128 101 141 335 308 299 290 241 264 293 354 5 350 316 250 204 199 188 184 190 203 193 175 164 194 199 211 228 211
328 351 358 4 349 43 22 51 43 90 89 69 78 77 179 117 87 80 48 45 39 36 42 74 92 70 41 30 15 4 318 264 196 185 185 204 198 198 206 204 206 223 228
12 21 13 17 24 27 45 49 60 56 68 79 50 53 68 74 66 58 47 44 40 29 32 41 27 46 98 76 48 21 21 346 355 359 2 354 302 241 218 226 224 236 237
33 32 23 28 27 28 45 49 44 43 55 69 65 52 63 56 66 36 29 24 31 45 38 50 67 60 48 57 55 57 350 328 328 321 346 350 344 352 310 259 230 227 212
43 44 31 38 32 37 41 48 53 40 25 46 59 65 47 71 60 43 33 20 25 47 49 37 49 57 38 45 59 68 16 340 330 336 335 315 329 338 344 348 344 345 319
44 51 52 44 46 39 41 50 59 77 54 45 53 46 58 77 83 86 69 46 40 41 53 50 31 48 46 43 43 31 11 356 7 345 322 347 11 15 2 351 355 340 321
61 53 55 63 64 58 61 67 59 59 59 57 55 59 45 63 63 60 66 64 65 53 54 48 50 59 64 50 35 24 16 6 27 10 25 28 34 26 5 7 8 358 349